Regional Weather Roundup
Issued by NWS

Home | Current Version | Previous Version | Graphics & Text | Print | Product List | Glossary On
Versions: 1 2 3 4 5 6 7 8 9 10 11 12 13 14 15 16 17 18 19 20 21 22 23 24 25 26 27 28 29 30 31 32 33 34 35 36 37 38 39 40 41 42 43 44 45 46 47 48 49 50
000
ASUS43 KLOT 030700
RWRIL

ILLINOIS REGIONAL WEATHER ROUNDUP
NATIONAL WEATHER SERVICE CHICAGO/ROMEOVILLE IL
100 AM CST TUE MAR 03 2015

NOTE: "FAIR" INDICATES FEW OR NO CLOUDS BELOW 12,000 FEET WITH NO
SIGNIFICANT WEATHER AND/OR OBSTRUCTIONS TO VISIBILITY.

* THESE STATIONS ARE NOT UNDER NWS QUALITY CONTROL. THEY ALSO MAY NOT
  REPORT WEATHER SUCH AS PRECIPITATION OR FOG.

ILZ001-002-007-009-015-016-024-030800-
NORTHWEST ILLINOIS

CITY           SKY/WX    TMP DP  RH WIND       PRES   REMARKS
MOLINE         CLOUDY    27  18  69 SE9       30.10F WCI  18
STERLING*      CLOUDY    25  18  74 SE6       30.15F WCI  18
$$

ILZ003-004-008-010-011-017-018-030800-
NORTH CENTRAL ILLINOIS

CITY           SKY/WX    TMP DP  RH WIND       PRES   REMARKS
ROCKFORD       CLOUDY    24  17  74 SE9       30.17F WCI  14
FREEPORT*      CLOUDY    24  19  80 SE8       30.16F WCI  15
$$

ILZ005-006-012>014-019>023-030800-
NORTHEAST ILLINOIS

CITY           SKY/WX    TMP DP  RH WIND       PRES   REMARKS
CHICAGO-OHARE  CLOUDY    26  16  65 S13       30.20F WCI  15
CHICAGO-MIDWAY CLOUDY    28  16  60 S8        30.22F WCI  20
AURORA         CLOUDY    26  16  65 SE10      30.18F WCI  16
LANSING*       CLOUDY    27  17  66 S7        30.23F WCI  19
WAUKEGAN       CLOUDY    26  15  63 S9        30.20F WCI  17
DUPAGE AIRPORT CLOUDY    25  15  66 S10       30.19F WCI  15
WHEELING       CLOUDY    26  14  60 SE8       30.22F WCI  18
NORTHERLY ISL    N/A     27  17  66 SE8         N/A  WCI  19
$$

LMZ740>746-030800-
SOUTHERN LAKE MICHIGAN

STATION/POSITION SKY/WX   TEMP    WIND        PRES    VSBY  WAVE
                          AIR SEA DIR/SP/G                  HT/PER
                          (F)     (DEG/KT/KT) (MB)    (MI)  (FT/S)
WAUKEGAN HARBOR            27     170/  9/ 11   N/A
HARRISON CRIB              27     170/ 13/ 17   N/A
BURNHAM HARBOR             27     140/  9       N/A
CALUMET HARBOR             27     140/  6/  8   N/A
MICHIGAN CITY              26     130/  5/  7   N/A
$$

ILZ025>027-034>036-040-047-049-050-058-095>099-030800-
WEST-CENTRAL ILLINOIS

CITY           SKY/WX    TMP DP  RH WIND       PRES   REMARKS
QUINCY         MIX PCPN  29  21  72 SE12      30.07F WCI  19
MACOMB*        CLOUDY    28  23  82 SE10      30.13F WCI  18
$$

ILZ028>032-037-038-041>044-048-051>054-059>061-030800-
CENTRAL ILLINOIS

CITY           SKY/WX    TMP DP  RH WIND       PRES   REMARKS
DECATUR        FRZ RAIN  27  22  81 SE9       30.17F WCI  18
PEORIA         MIX PCPN  28  19  69 SE8       30.15F WCI  20
SPRINGFIELD    CLOUDY    29  22  75 E9        30.14F WCI  20
TAYLORVILLE    NOT AVBL
$$

ILZ033-039-045-046-055>057-062-063-030800-
EAST-CENTRAL ILLINOIS

CITY           SKY/WX    TMP DP  RH WIND       PRES   REMARKS
CHAMPAIGN      CLOUDY    26  20  77 SE12      30.17F WCI  16
MATTOON        CLOUDY    29  17  61 SE12      30.17F WCI  19
$$

ILZ079-100>102-030800-
SOUTHWEST ILLINOIS

CITY           SKY/WX    TMP DP  RH WIND       PRES   REMARKS
BELLEVILLE     CLOUDY    31  24  77 SE9       30.12F WCI  22
CAHOKIA*       CLOUDY    32  23  69 SE8       30.12F WCI  25
$$

ILZ064>066-069>071-074>076-080>082-084>086-088>090-092>094-030800-
SOUTH-CENTRAL ILLINOIS

CITY           SKY/WX    TMP DP  RH WIND       PRES   REMARKS
CARBONDALE     CLOUDY    33  24  69 SE6       30.16F WCI  28
MT. VERNON     CLOUDY    30  19  64 E3        30.18F
$$

ILZ067-068-072-073-078-083-087-091-030800-
SOUTHEAST ILLINOIS

CITY           SKY/WX    TMP DP  RH WIND       PRES   REMARKS
LAWRENCEVILLE  CLOUDY    30  20  66 SE8       30.21F WCI  22
$$

ABBREVIATIONS USED IN REMARKS
   TC - TEMPERATURE IN CELSIUS
  WCI - WIND CHILL INDEX
   HX - HEAT INDEX
  VSB - VISIBILITY
$$



USA.gov is the U.S. government's official web portal to all federal, state and local government web resources and services.